Terminal Aerodrome Forecast
Issued by NWS Portland, OR

Home | Current Version | Previous Version | Text Only | Print | Product List | Glossary On
Versions: 1 2 3 4 5 6 7 8 9 10 11 12 13 14 15 16 17 18 19 20 21 22 23 24 25 26 27 28 29 30 31 32 33 34 35 36 37 38 39 40 41 42 43 44 45 46 47 48 49 50
000
FTUS46 KPQR 250520
TAFPDX
TAF
KPDX 250520Z 2506/2606 32005KT P6SM FEW025 OVC035
     FM250800 31006KT P6SM OVC025
     FM251300 32003KT P6SM BKN015 OVC020
     FM251700 29004KT P6SM SCT025 OVC030
     FM252200 34006KT P6SM BKN030 BKN050=

USA.gov is the U.S. government's official web portal to all federal, state and local government web resources and services.